Previsão horária em Abdulnasyrovo

Hoje, 11 Abril, Domingo

Tempo Temperatura Precipitação Vento Pressão Humidade
00:00 -2°C° 0 mm 2 m/s 739 mmHg 97%
01:00 -4°C° 0 mm 3 m/s 739 mmHg 96%
02:00 -3°C° 0 mm 2 m/s 739 mmHg 97%
03:00 -3°C° 0 mm 2 m/s 739 mmHg 98%
04:00 -2°C° 0 mm 2 m/s 739 mmHg 98%
05:00 -2°C° 0 mm 2 m/s 739 mmHg 99%
06:00 +1°C° 0 mm 1 m/s 739 mmHg 99%
07:00 +1°C° 0 mm 1 m/s 739 mmHg 99%
08:00 +2°C° 0 mm 1 m/s 739 mmHg 99%
09:00 +1°C° 0 mm 2 m/s 739 mmHg 99%
10:00 +2°C° 0 mm 2 m/s 739 mmHg 99%
11:00 +2°C° 0 mm 2 m/s 739 mmHg 99%
12:00 +3°C° 0 mm 2 m/s 739 mmHg 99%
13:00 +3°C° 0 mm 2 m/s 739 mmHg 99%
14:00 +3°C° 0 mm 2 m/s 739 mmHg 97%
15:00 +4°C° 0 mm 2 m/s 739 mmHg 95%
16:00 +4°C° 0 mm 2 m/s 739 mmHg 94%
17:00 +3°C° 0 mm 2 m/s 739 mmHg 94%
18:00 +4°C° 0 mm 1 m/s 739 mmHg 94%
19:00 +3°C° 0 mm 1 m/s 739 mmHg 94%
20:00 +3°C° 0 mm 1 m/s 739 mmHg 92%
21:00 +2°C° 0 mm 1 m/s 739 mmHg 91%
22:00 +2°C° 0 mm 1 m/s 739 mmHg 89%
23:00 +2°C° 0 mm 1 m/s 739 mmHg 86%

Amanhã, 12 Abril, Segunda-feira

Tempo Temperatura Precipitação Vento Pressão Humidade
00:00 +2°C° 0 mm 1 m/s 739 mmHg 84%
01:00 0°C° 0 mm 0 m/s 739 mmHg 81%
02:00 0°C° 0 mm 0 m/s 739 mmHg 78%
03:00 0°C° 0 mm 0 m/s 739 mmHg 75%
04:00 0°C° 0 mm 0 m/s 739 mmHg 72%
05:00 +1°C° 0 mm 0 m/s 739 mmHg 69%
06:00 +2°C° 0 mm 0 m/s 739 mmHg 67%
07:00 +2°C° 0 mm 0 m/s 739 mmHg 65%
08:00 +4°C° 0 mm 0 m/s 739 mmHg 61%
09:00 +5°C° 0 mm 0 m/s 739 mmHg 57%
10:00 +7°C° 0 mm 1 m/s 739 mmHg 53%
11:00 +8°C° 0 mm 1 m/s 739 mmHg 52%
12:00 +9°C° 0 mm 1 m/s 739 mmHg 52%
13:00 +10°C° 0 mm 1 m/s 739 mmHg 51%
14:00 +9°C° 0 mm 2 m/s 739 mmHg 53%
15:00 +10°C° 0 mm 2 m/s 739 mmHg 55%
16:00 +10°C° 0 mm 2 m/s 739 mmHg 57%
17:00 +8°C° 0 mm 2 m/s 739 mmHg 61%
18:00 +7°C° 0 mm 2 m/s 739 mmHg 64%
19:00 +5°C° 0 mm 2 m/s 739 mmHg 68%
20:00 +5°C° 0 mm 2 m/s 739 mmHg 68%
21:00 +4°C° 0 mm 2 m/s 739 mmHg 68%
22:00 +4°C° 0 mm 2 m/s 739 mmHg 67%
23:00 +3°C° 0 mm 2 m/s 739 mmHg 70%

Depois de amanhã, 13 Abril, Terça-feira

Tempo Temperatura Precipitação Vento Pressão Humidade
00:00 +3°C° 0 mm 2 m/s 739 mmHg 72%
01:00 +3°C° 0 mm 2 m/s 739 mmHg 74%
02:00 +2°C° 0 mm 2 m/s 739 mmHg 75%
03:00 +2°C° 0 mm 2 m/s 739 mmHg 76%
04:00 +2°C° 0 mm 2 m/s 739 mmHg 77%
05:00 +2°C° 0 mm 2 m/s 740 mmHg 76%
06:00 +3°C° 0 mm 2 m/s 740 mmHg 76%
07:00 +3°C° 0 mm 2 m/s 740 mmHg 76%
08:00 +4°C° 0 mm 3 m/s 740 mmHg 71%
09:00 +5°C° 0 mm 3 m/s 740 mmHg 67%
10:00 +7°C° 0 mm 4 m/s 740 mmHg 62%
11:00 +8°C° 0 mm 4 m/s 740 mmHg 59%
12:00 +11°C° 0 mm 4 m/s 739 mmHg 56%
13:00 +12°C° 0 mm 4 m/s 739 mmHg 52%
14:00 +12°C° 0 mm 3 m/s 739 mmHg 52%
15:00 +13°C° 0 mm 3 m/s 739 mmHg 52%
16:00 +13°C° 0 mm 3 m/s 738 mmHg 52%
17:00 +12°C° 0 mm 3 m/s 738 mmHg 59%
18:00 +11°C° 0 mm 3 m/s 738 mmHg 67%
19:00 +10°C° 0 mm 2 m/s 738 mmHg 74%
20:00 +9°C° 0 mm 2 m/s 738 mmHg 79%
21:00 +8°C° 0 mm 2 m/s 738 mmHg 83%
22:00 +7°C° 0 mm 2 m/s 738 mmHg 88%
23:00 +8°C° 0 mm 1 m/s 737 mmHg 89%

14 Abril, Quarta-feira

Tempo Temperatura Precipitação Vento Pressão Humidade
00:00 +8°C° 0 mm 1 m/s 737 mmHg 91%
01:00 +7°C° 0 mm 1 m/s 737 mmHg 93%
02:00 +7°C° 0 mm 1 m/s 737 mmHg 93%
03:00 +7°C° 0 mm 1 m/s 736 mmHg 94%
04:00 +6°C° 0 mm 1 m/s 736 mmHg 94%
05:00 +7°C° 0 mm 1 m/s 736 mmHg 94%
06:00 +7°C° 0 mm 1 m/s 736 mmHg 94%
07:00 +7°C° 0 mm 1 m/s 736 mmHg 93%
08:00 +8°C° 0 mm 2 m/s 736 mmHg 87%
09:00 +9°C° 0 mm 2 m/s 735 mmHg 81%
10:00 +11°C° 0 mm 3 m/s 735 mmHg 75%
11:00 +12°C° 0 mm 3 m/s 735 mmHg 70%
12:00 +13°C° 0 mm 3 m/s 734 mmHg 65%
13:00 +14°C° 0 mm 3 m/s 734 mmHg 60%
14:00 +14°C° 0 mm 3 m/s 733 mmHg 60%
15:00 +16°C° 0 mm 3 m/s 733 mmHg 59%
16:00 +16°C° 0 mm 3 m/s 732 mmHg 58%
17:00 +14°C° 0 mm 3 m/s 732 mmHg 63%
18:00 +14°C° 0 mm 2 m/s 732 mmHg 68%
19:00 +13°C° 0 mm 2 m/s 731 mmHg 72%
20:00 +12°C° 0 mm 2 m/s 731 mmHg 75%
21:00 +10°C° 0 mm 2 m/s 731 mmHg 77%
22:00 +11°C° 0 mm 1 m/s 731 mmHg 80%
23:00 +10°C° 0 mm 1 m/s 731 mmHg 80%

15 Abril, Quinta-feira

Tempo Temperatura Precipitação Vento Pressão Humidade
00:00 +10°C° 0 mm 1 m/s 730 mmHg 81%
01:00 +9°C° 0 mm 1 m/s 730 mmHg 82%
02:00 +9°C° 0 mm 1 m/s 730 mmHg 82%
03:00 +8°C° 0 mm 1 m/s 730 mmHg 83%
04:00 +8°C° 0 mm 1 m/s 729 mmHg 83%
05:00 +8°C° 0 mm 1 m/s 729 mmHg 83%
06:00 +9°C° 0 mm 1 m/s 729 mmHg 82%
07:00 +9°C° 0 mm 1 m/s 729 mmHg 81%
08:00 +10°C° 0 mm 2 m/s 729 mmHg 75%
09:00 +12°C° 0 mm 2 m/s 729 mmHg 68%
10:00 +13°C° 0 mm 2 m/s 728 mmHg 62%
11:00 +14°C° 0 mm 2 m/s 728 mmHg 56%
12:00 +15°C° 0 mm 2 m/s 728 mmHg 51%
13:00 +16°C° 0 mm 2 m/s 727 mmHg 45%
14:00 +17°C° 0 mm 2 m/s 727 mmHg 44%
15:00 +17°C° 0 mm 2 m/s 727 mmHg 42%
16:00 +18°C° 0 mm 1 m/s 726 mmHg 40%
17:00 +16°C° 0 mm 1 m/s 726 mmHg 44%
18:00 +15°C° 0 mm 1 m/s 726 mmHg 48%
19:00 +14°C° 0 mm 1 m/s 725 mmHg 52%
20:00 +13°C° 0 mm 1 m/s 725 mmHg 54%
21:00 +12°C° 0 mm 1 m/s 725 mmHg 56%
22:00 +12°C° 0 mm 1 m/s 724 mmHg 58%
23:00 +11°C° 0 mm 1 m/s 724 mmHg 60%

16 Abril, Sexta-feira

Tempo Temperatura Precipitação Vento Pressão Humidade
00:00 +10°C° 0 mm 1 m/s 724 mmHg 62%
01:00 +10°C° 0 mm 1 m/s 723 mmHg 64%
02:00 +9°C° 0 mm 1 m/s 723 mmHg 65%
03:00 +9°C° 0 mm 1 m/s 723 mmHg 66%
04:00 +8°C° 0 mm 1 m/s 722 mmHg 67%
05:00 +9°C° 0 mm 1 m/s 722 mmHg 67%
06:00 +9°C° 0 mm 1 m/s 722 mmHg 67%
07:00 +10°C° 0 mm 1 m/s 722 mmHg 67%
08:00 +11°C° 0 mm 1 m/s 722 mmHg 61%
09:00 +13°C° 0 mm 2 m/s 721 mmHg 56%
10:00 +15°C° 0 mm 2 m/s 721 mmHg 51%
11:00 +16°C° 0 mm 2 m/s 721 mmHg 48%
12:00 +16°C° 0 mm 2 m/s 721 mmHg 45%
13:00 +17°C° 0 mm 3 m/s 720 mmHg 42%
14:00 +18°C° 0 mm 3 m/s 720 mmHg 40%
15:00 +18°C° 0 mm 3 m/s 720 mmHg 38%
16:00 +18°C° 0 mm 3 m/s 720 mmHg 36%
17:00 +17°C° 0 mm 3 m/s 719 mmHg 41%
18:00 +14°C° 0 mm 3 m/s 719 mmHg 47%
19:00 +13°C° 0 mm 3 m/s 719 mmHg 52%
20:00 +12°C° 0 mm 3 m/s 719 mmHg 54%
21:00 +13°C° 0 mm 2 m/s 719 mmHg 57%
22:00 +12°C° 0 mm 2 m/s 719 mmHg 59%
23:00 +10°C° 0 mm 2 m/s 719 mmHg 60%
Mostrar mais

Necessitamos do seu Consentimento

A Meteoprog e os seus Fornecedores de Serviços podem armazenar e aceder a dados pessoais como cookies, identificadores do dispositivo ou outras tecnologias semelhantes existentes no seu dispositivo e processar estes dados para personalizar conteúdos e anúncios, assim como funcionalidades nas redes sociais e análise de tráfego.

  • Armazenar e/ou aceder a informações no seu dispositivo

    Os cookies, identificadores do dispositivo ou outras informações podem ser armazenados ou acedidos no seu dispositivo, para os fins acima indicados.

  • Anúncios e conteúdos personalizados, medição de anúncios e conteúdos, dados sobre o público-alvo e desenvolvimento de produtos

    Os anúncios e os conteúdos podem ser personalizados com base num perfil. Podem ser adicionados dados adicionais para uma maior personalização dos anúncios e dos conteúdos. A eficácia dos anúncios e dos conteúdos pode ser medida. Podem ser obtidas informações sobre o público que visualizou os anúncios e os conteúdos. Estes dados podem ser usados para desenvolver ou melhorar sistemas, softwares ou a experiência do utilizador.

Ao clicar em "Eu concordo”, permitirá o uso de cookies, identificadores do dispositivo e web beacons mencionados ou outras tecnologias semelhantes. As configurações do navegador do seu dispositivo podem ser alteradas.

Para certos fins, podem ser invocados interesses legítimos ao invés de consentimento. Pode ler mais informação sobre este assunto na nossa Política de Privacidade e Cookies.